User: anonymous   Login
Location: Caltech
(34.1382°N, 118.1253°W)
Time: 16:26:15
(UTC-07:00)
Language:

Cosmos 1975 - Orbit

View from above orbital plane
View from above orbital plane
View from above satellite
View from above satellite

Ground track
Ground track

The orbit data is extracted from the following two-line orbital elements,

1 19573U 88093A   15245.53756112 +.00000807 +00000-0 +57900-4 0  9990
2 19573 082.5184 257.3908 0014832 009.8092 350.3420 15.02907363440444
Epoch (UTC): 02 September 2015 12:54:05
Eccentricity: 0.0014832
inclination: 82.5184°
perigee height: 547 km
apogee height: 568 km
right ascension of ascending node: 257.3908°
argument of perigee: 9.8092°
revolutions per day: 15.02907363
mean anomaly at epoch: 350.3420°
orbit number at epoch: 44044

The dashed part of the orbit path shows where the satellite is in the earth's shadow,  

DLR